Location: Complexul Astronomic Baia Mare
(47.6577°N, 23.5639°E)
Time: 23:54:43
(UTC+03:00)

ISS - Pass Details

Date: 07 June 2017
Orbit: 401 x 408 km, 51.6° (Epoch: 28 June)

Event Time Altitude Azimuth Distance (km) Brightness Sun altitude
Rises 21:58:29 0° 293° (WNW) 2,341 1.6 -5.7°
Reaches altitude 10° 22:00:34 10° 293° (WNW) 1,477 0.4 -5.9°
Maximum altitude 22:03:53 88° 210° (SSW) 414 -3.8 -6.3°
Drops below altitude 10° 22:07:11 10° 116° (ESE) 1,468 -1.6 -6.7°
Enters shadow 22:07:34 - 116° (ESE) 1,626 -1.4 -6.8°
